EUR65 VABB-DAON

Flight info

Callsign EUR65
Flight time N/A
Altitude 38000
Route VABB EXOLU NOBAT LADOT RASKI VAXIM DORAB ALSAS TONVO SHJ MUTVI ORSAR EGMID DURSI IMDAT ALNIN OBMOR NANPI DESLU SIDAD BSR DISAR LOVEK PUSTO RAPLU MODIK TAN SULAF ABBAS SOFIA DAM KAD KUKLA DESPO REXAL LCA RUBIK TOBAL TOSKA AMONO VAXOS GISOS PERIM VEREK TELRI LAPSO SIT AMAXI OTREX PLH PIDAS DEMAG ALIXA BINKO EVIRA AGARI GZO ASDAX DOBIX SONAK DIDON TUC DAON
Aircraft A388/J-DGVW/C

Departure

Time 2026-04-28 06:05
Airport Chhatrapati Shivaji Maharaj International Airport (VABB)

Arrival

Time N/A
Airport Zenata – Messali El Hadj Airport (DAON)
Time Latitude Longitude Altitude Speed Heading
2026-04-28 06:01 19.09724 72.87848 38 ft 2 kts 271°
2026-04-28 06:01 19.09724 72.87867 38 ft 3 kts 254°
2026-04-28 06:02 19.09735 72.87885 38 ft 3 kts 207°
2026-04-28 06:02 19.09750 72.87889 38 ft 2 kts 181°
2026-04-28 06:02 19.09625 72.87901 38 ft 28 kts 196°
2026-04-28 06:02 19.09447 72.87774 38 ft 20 kts 222°
2026-04-28 06:03 19.09303 72.87762 38 ft 35 kts 165°
2026-04-28 06:03 19.09041 72.87819 38 ft 31 kts 186°
2026-04-28 06:03 19.08892 72.87762 38 ft 15 kts 258°
2026-04-28 06:03 19.08879 72.87572 38 ft 1 kts 267°
2026-04-28 06:04 19.08879 72.87571 38 ft 0 kts 267°
2026-04-28 06:04 19.08879 72.87570 38 ft 1 kts 267°
2026-04-28 06:04 19.08871 72.87332 38 ft 64 kts 271°
2026-04-28 06:05 19.08864 72.86642 38 ft 123 kts 271°
2026-04-28 06:05 19.08860 72.85546 138 ft 167 kts 269°
2026-04-28 06:05 19.08794 72.84202 708 ft 198 kts 268°
2026-04-28 06:05 19.09136 72.82760 1707 ft 212 kts 293°
2026-04-28 06:06 19.09568 72.82133 2219 ft 219 kts 307°
2026-04-28 06:07 19.10676 72.81205 3240 ft 230 kts 323°
2026-04-28 06:07 19.12098 72.80300 4288 ft 248 kts 329°
2026-04-28 06:07 19.13620 72.79305 5395 ft 261 kts 326°
2026-04-28 06:08 19.15091 72.78210 6942 ft 258 kts 323°
2026-04-28 06:08 19.16495 72.77053 8428 ft 253 kts 321°
2026-04-28 06:08 19.17807 72.75878 9890 ft 241 kts 319°
2026-04-28 06:08 19.19096 72.74657 10541 ft 266 kts 317°
2026-04-28 06:09 19.20520 72.73224 11111 ft 293 kts 314°
2026-04-28 06:09 19.22011 72.71650 11639 ft 320 kts 313°